This is the latest recevied weather packets stored in our database for station/object K7DC. If no packets are shown the sender has not sent any weather packets the latest 10 day(s).
| Time | Temp. | Humidity | Pressure | Rain* | Wind** | Luminosity | Snow |
|---|---|---|---|---|---|---|---|
| 1777642781 | 15° C | 74% | 1013.1 hPa | 0 mm | - | 77 W/m² | - |
| 1777642478 | 14.44° C | 74% | 1013.1 hPa | 0 mm | - | 67 W/m² | - |
| 1777642174 | 14.44° C | 75% | 1013 hPa | 0 mm | - | 56 W/m² | - |
| 1777641872 | 13.89° C | 76% | 1013.1 hPa | 0 mm | - | 48 W/m² | - |
| 1777641571 | 13.89° C | 76% | 1012.9 hPa | 0 mm | - | 39 W/m² | - |
| 1777641266 | 13.33° C | 77% | 1012.9 hPa | 0 mm | - | 32 W/m² | - |
| 1777640963 | 13.33° C | 77% | 1012.9 hPa | 0 mm | - | 27 W/m² | - |
| 1777640660 | 12.78° C | 79% | 1012.8 hPa | 0 mm | - | 23 W/m² | - |
| 1777640356 | 12.22° C | 81% | 1012.6 hPa | 0 mm | - | 18 W/m² | - |
| 1777640053 | 12.22° C | 82% | 1012.7 hPa | 0 mm | - | 13 W/m² | - |
| 1777639750 | 11.67° C | 84% | 1012.7 hPa | 0 mm | - | 9 W/m² | - |
| 1777639448 | 11.67° C | 85% | 1012.6 hPa | 0 mm | - | 6 W/m² | - |
| 1777639143 | 11.67° C | 84% | 1012.2 hPa | 0 mm | - | 3 W/m² | - |
| 1777638841 | 11.67° C | 84% | 1012.4 hPa | 0 mm | - | 2 W/m² | - |
| 1777638536 | 11.67° C | 85% | 1012.5 hPa | 0 mm | - | 1 W/m² | - |
| 1777638233 | 11.67° C | 85% | 1012.1 hPa | 0 mm | - | 0 W/m² | - |
| 1777637929 | 11.67° C | 85% | 1012.2 hPa | 0 mm | - | 0 W/m² | - |
| 1777637625 | 11.67° C | 85% | 1012 hPa | 0 mm | - | 0 W/m² | - |
| 1777637322 | 11.67° C | 85% | 1012 hPa | 0 mm | - | 0 W/m² | - |
| 1777637019 | 11.67° C | 84% | 1012 hPa | 0 mm | - | 0 W/m² | - |
| 1777636715 | 11.67° C | 85% | 1012.1 hPa | 0 mm | - | 0 W/m² | - |
| 1777636412 | 11.67° C | 84% | 1012 hPa | 0 mm | - | 0 W/m² | - |
| 1777636107 | 11.67° C | 84% | 1012.1 hPa | 0 mm | - | 0 W/m² | - |
| 1777635802 | 11.67° C | 83% | 1012.1 hPa | 0 mm | - | 0 W/m² | - |
| 1777635499 | 11.67° C | 82% | 1012 hPa | 0 mm | - | 0 W/m² | - |
* Rain latest hour (hover to see other rain measurements)
** Current wind speed in m/s (hover to see current wind gust speed)